[[{"header":{"parameterUnit":"m.s-1","parameterCategory":1,"la1":30.2992,"la2":30.254,"lo1":-89.0895,"lo2":-89.0443,"dy":0.0025,"dx":0.0025,"nx":19,"ny":19,"refTime":"2026-03-12T03:00:00:Z","depth":0,"parameterNumber":2,"parameterNumberName":"U-component_of_WINDS"},"data":[0,0,0,-0.1001,-0.1003,-0.1081,-0.1081,-0.1177,-0.1177,0,0,0,0,0,0,0,0,0,0,0,-0.0975,-0.0976,-0.1001,-0.1003,-0.1081,-0.1081,-0.1176,-0.1177,0,0,0,0,0,0,0,0,0,0,0,-0.0975,-0.0976,-0.0976,-0.1003,-0.1081,-0.1081,-0.1176,-0.1119,0,0,0,0,0,0,0,0,0,0,-0.1044,-0.1018,-0.0976,-0.0976,-0.1004,-0.108,-0.1081,-0.1116,-0.1123,-0.1139,0,-0.1153,0,-0.1167,-0.1183,-0.1184,0,0,0,-0.1005,-0.1012,-0.1036,-0.0977,-0.1004,-0.108,-0.1046,-0.112,-0.1127,-0.1148,-0.1155,-0.1158,-0.1168,-0.1184,-0.1184,-0.1271,-0.1272,0,0,-0.1001,-0.0988,-0.1031,-0.104,-0.1027,-0.1044,-0.1049,-0.1124,-0.1131,-0.1155,-0.1161,-0.117,-0.1185,-0.1185,-0.1271,-0.1271,0,0,0,-0.0987,-0.0985,-0.1007,-0.1036,-0.105,-0.1046,-0.1052,-0.1128,-0.1136,-0.1162,-0.1171,-0.1185,-0.1186,-0.1271,-0.1271,-0.1273,0,0,0,-0.0984,-0.0977,-0.1005,-0.0998,-0.1049,-0.109,-0.1054,-0.1131,-0.114,-0.117,-0.1185,-0.1187,-0.127,-0.1271,-0.1273,-0.1277,0,0,0,-0.0971,-0.0976,-0.0986,-0.0997,-0.103,-0.1089,-0.1102,-0.1133,-0.1145,-0.1184,-0.1187,-0.127,-0.1271,-0.1272,-0.1276,-0.1296,0,0,0,-0.0954,-0.0988,-0.0986,-0.1027,-0.1029,-0.1089,-0.1101,-0.1147,-0.1181,-0.1186,-0.1271,-0.1271,-0.1272,-0.1276,-0.1295,-0.1311,-0.1316,0,0,-0.099,-0.0992,-0.1017,-0.1017,-0.1075,-0.1079,-0.1137,-0.118,-0.1195,-0.1245,-0.1247,-0.1273,-0.1276,-0.1296,-0.1348,-0.1352,0,0,0,-0.1025,-0.1043,-0.106,-0.1091,-0.1123,-0.1151,-0.1186,-0.1202,-0.1244,-0.1218,-0.1286,-0.1288,-0.13,-0.1308,-0.1311,-0.1322,-0.1274,-0.1274,-0.1274,-0.1059,-0.1076,-0.1118,-0.1143,-0.1172,-0.1206,-0.1232,-0.1258,-0.1268,-0.1283,-0.1299,-0.1328,-0.1337,-0.134,-0.1351,-0.1307,-0.1307,-0.1308,-0.1308,-0.1114,-0.1142,-0.1151,-0.1196,-0.1212,-0.125,-0.1283,-0.1288,-0.1326,-0.1318,-0.133,-0.1321,-0.1343,-0.1354,-0.1308,-0.1308,-0.1308,-0.1308,-0.1308,-0.114,-0.1156,-0.1173,-0.1216,-0.1248,-0.1272,-0.1307,-0.1321,-0.1335,-0.1346,-0.1363,-0.1363,-0.1365,-0.1353,-0.1353,-0.1353,-0.1353,-0.1353,-0.1353,-0.116,-0.1179,-0.1206,-0.1241,-0.1261,-0.1289,-0.1321,-0.1342,-0.1368,-0.1375,-0.1376,-0.1383,-0.1342,-0.1332,-0.1355,-0.1355,-0.1354,-0.1354,-0.1354,-0.1211,-0.1201,-0.1243,-0.1263,-0.1304,-0.1334,-0.135,-0.139,-0.1408,-0.1424,-0.1428,-0.1396,-0.1399,-0.1397,-0.1388,-0.1425,-0.1425,-0.1425,-0.1425,-0.1233,-0.1235,-0.1281,-0.1311,-0.1342,-0.136,-0.1406,-0.1431,-0.1455,-0.1467,-0.1463,-0.1453,-0.145,-0.1455,-0.1452,-0.1444,-0.1494,-0.1494,-0.1494,-0.1266,-0.1271,-0.1308,-0.133,-0.1362,-0.139,-0.1433,-0.1467,-0.1492,-0.1497,-0.1477,-0.1474,-0.1457,-0.1451,-0.1457,-0.1451,-0.1438,0,0]},{"header":{"parameterUnit":"m.s-1","parameterCategory":1,"la1":30.2992,"la2":30.254,"lo1":-89.0895,"lo2":-89.0443,"dy":0.0025,"dx":0.0025,"nx":19,"ny":19,"refTime":"2026-03-12T03:00:00:Z","depth":0,"parameterNumber":3,"parameterNumberName":"V-component_of_WINDS"},"data":[0,0,0,-9.9744,-9.9749,-9.9992,-9.9993,-10.0307,-10.0309,0,0,0,0,0,0,0,0,0,0,0,-9.9677,-9.968,-9.9743,-9.975,-9.9992,-9.9993,-10.0306,-10.0309,0,0,0,0,0,0,0,0,0,0,0,-9.9676,-9.9679,-9.9682,-9.9751,-9.9992,-9.9993,-10.0305,-10.012,0,0,0,0,0,0,0,0,0,0,-9.9883,-9.9828,-9.9678,-9.9682,-9.9752,-9.9992,-9.9993,-10.0111,-10.0132,-10.0199,0,-10.0264,0,-10.0292,-10.0331,-10.0332,0,0,0,-9.9744,-9.9811,-9.9872,-9.9683,-9.9754,-9.9991,-9.9881,-10.0123,-10.0146,-10.0226,-10.0268,-10.028,-10.0297,-10.0333,-10.0335,-10.0753,-10.0755,0,0,-9.9731,-9.9723,-9.9856,-9.9888,-9.9855,-9.9874,-9.9889,-10.0136,-10.018,-10.0269,-10.0287,-10.0303,-10.0335,-10.0338,-10.0751,-10.0754,0,0,0,-9.9696,-9.9713,-9.9769,-9.9875,-9.9919,-9.9881,-9.9898,-10.0169,-10.0188,-10.029,-10.0306,-10.0337,-10.0341,-10.0749,-10.0752,-10.0857,0,0,0,-9.9688,-9.9693,-9.9763,-9.976,-9.9915,-10.0048,-9.9925,-10.0171,-10.0199,-10.0305,-10.0337,-10.0344,-10.0746,-10.075,-10.0849,-10.0907,0,0,0,-9.9659,-9.969,-9.9727,-9.9759,-9.9864,-10.0044,-10.0077,-10.0177,-10.0209,-10.0332,-10.0345,-10.0745,-10.075,-10.0841,-10.0895,-10.1017,0,0,0,-9.9625,-9.9812,-9.9729,-9.9944,-9.9862,-10.0108,-10.0075,-10.0258,-10.0376,-10.0339,-10.0747,-10.0752,-10.0839,-10.0887,-10.1009,-10.1119,-10.1164,0,0,-9.9856,-9.984,-9.9967,-9.99,-10.016,-10.0071,-10.0345,-10.0458,-10.0474,-10.0658,-10.0669,-10.0851,-10.0894,-10.1015,-10.1417,-10.1453,0,0,0,-10.0037,-10.0129,-10.02,-10.0315,-10.041,-10.0496,-10.0569,-10.0611,-10.0769,-10.0569,-10.0928,-10.0953,-10.1025,-10.1077,-10.1108,-10.117,-10.0776,-10.0775,-10.0775,-10.035,-10.0367,-10.058,-10.0626,-10.0738,-10.0815,-10.0906,-10.0976,-10.0954,-10.1039,-10.1094,-10.1337,-10.1398,-10.1421,-10.1486,-10.1152,-10.1153,-10.1153,-10.1153,-10.0691,-10.0825,-10.0799,-10.0996,-10.1011,-10.1175,-10.1256,-10.1236,-10.139,-10.1295,-10.1359,-10.1256,-10.146,-10.1518,-10.1161,-10.116,-10.1159,-10.1158,-10.1158,-10.0899,-10.0966,-10.1019,-10.1191,-10.132,-10.1359,-10.151,-10.1517,-10.1523,-10.1586,-10.1646,-10.1644,-10.1644,-10.1614,-10.1615,-10.1616,-10.1617,-10.1617,-10.1618,-10.1094,-10.115,-10.1279,-10.14,-10.1477,-10.1579,-10.166,-10.1735,-10.1819,-10.1811,-10.1812,-10.1783,-10.1478,-10.1401,-10.1631,-10.1629,-10.1627,-10.1626,-10.1625,-10.1435,-10.1361,-10.156,-10.1638,-10.1781,-10.1911,-10.1919,-10.2072,-10.2134,-10.2208,-10.2168,-10.1941,-10.1922,-10.1898,-10.1835,-10.2163,-10.2163,-10.2163,-10.2163,-10.1611,-10.1605,-10.1812,-10.1937,-10.206,-10.2089,-10.2313,-10.2378,-10.2432,-10.2472,-10.2425,-10.2342,-10.2317,-10.2314,-10.228,-10.2222,-10.2641,-10.2642,-10.2642,-10.1823,-10.1829,-10.2019,-10.2078,-10.2191,-10.2288,-10.2499,-10.2641,-10.2686,-10.2662,-10.2503,-10.2483,-10.2349,-10.2304,-10.2275,-10.2223,-10.2116,0,0]}]]